Location: Aufkirchen
(47.9603°N, 11.3653°E)
Time: 17:32:18
(UTC+01:00)

Transit 2A - Pass Details

Date: 27 November 2020
Orbit: 599 x 960 km, 66.7° (Epoch: 26 January)

Event Time Altitude Azimuth Distance (km) Brightness Sun altitude
Rises 02:50:06 0° 323° (NW) 3,327 - -47.1°
Reaches altitude 10° 02:52:40 10° 322° (NW) 2,333 - -46.7°
Maximum altitude 02:57:56 72° 240° (WSW) 757 - -45.9°
Drops below altitude 10° 03:02:40 10° 156° (SSE) 2,092 - -45.2°
Sets 03:04:51 0° 154° (SSE) 2,957 - -44.8°
